Weather History for Hobbs, NM

Change the Weather History Date:

Wednesday, November 21, 2012

  Actual Average Record
Temperature  
Mean Temperature 58 °F -  
Max Temperature 73 °F 61 °F 78 °F (1950)
Min Temperature 44 °F 35 °F 19 °F (2008)
Degree Days  
Heating Degree Days 6    
Growing Degree Days 8 (Base 50)    
Moisture  
Dew Point 43 °F    
Average Humidity 63    
Maximum Humidity 88    
Minimum Humidity 31    
Precipitation  
Precipitation 0.00 in - - ()
Sea Level Pressure  
Sea Level Pressure 30.17 in    
Wind  
Wind Speed 4 mph (SSE)    
Max Wind Speed 17 mph    
Max Gust Speed 24 mph    
Visibility 10 miles    
Events      
Averages and records for this station are not official NWS values.
T = Trace of Precipitation, MM = Missing Value Source: NWS Daily Summary

Daily Weather History Graph

Daily Weather History Graph

Search for Another Location

Airport:

Trip Planner

Search our weather history database for the weather conditions in past years. The results will help you decide how hot, cold, wet, or windy it might be!

Date:

Astronomy

Nov. 21, 2012 Rise Set
Actual Time 6:28 AM MST 4:48 PM MST
Civil Twilight 6:02 AM MST 5:15 PM MST
Nautical Twilight 5:32 AM MST 5:45 PM MST
Astronomical Twilight 5:02 AM MST 6:14 PM MST
Moon 12:48 PM MST (11/21) 12:10 AM MST (11/21)
Length of Visible Light 11h 12m
Length of Day
10h 20m
Waxing Gibbous, 62% of the Moon is Illuminated
Nov 21
Waxing Gibbous
Nov 28
Full
Dec 6
Last Quarter
Dec 13
New
Dec 19
First Quarter

Hourly Weather History & Observations

Time (MST) Temp. Windchill Dew Point Humidity Pressure Visibility Wind Dir Wind Speed Gust Speed Precip Events Conditions
12:15 AM 44.6 °F - 32.0 °F 61% 30.25 in 10.0 mi Calm Calm - N/A   Clear
12:35 AM 44.6 °F - 32.0 °F 61% 30.25 in 10.0 mi Calm Calm - N/A   Clear
12:55 AM 44.6 °F - 32.0 °F 61% 30.25 in 10.0 mi Calm Calm - N/A   Clear
1:15 AM 44.6 °F - 32.0 °F 61% 30.25 in 10.0 mi Calm Calm - N/A   Clear
1:35 AM 46.4 °F - 32.0 °F 57% 30.25 in 10.0 mi Calm Calm - N/A   Clear
1:55 AM 44.6 °F - 33.8 °F 66% 30.25 in 10.0 mi Calm Calm - N/A   Clear
2:15 AM 46.4 °F 45.2 °F 33.8 °F 62% 30.24 in 10.0 mi NE 3.5 mph - N/A   Clear
2:35 AM 44.6 °F 43.1 °F 33.8 °F 66% 30.24 in 10.0 mi NE 3.5 mph - N/A   Clear
2:55 AM 44.6 °F - 35.6 °F 71% 30.24 in 10.0 mi Calm Calm - N/A   Clear
3:15 AM 44.6 °F - 35.6 °F 71% 30.23 in 10.0 mi Calm Calm - N/A   Clear
3:35 AM 44.6 °F - 35.6 °F 71% 30.23 in 10.0 mi Calm Calm - N/A   Clear
3:55 AM 46.4 °F - 35.6 °F 66% 30.23 in 10.0 mi Calm Calm - N/A   Clear
5:50 AM 48.2 °F - 35.6 °F 62% 30.23 in 101.0 mi Calm Calm - N/A   Clear
6:50 AM 48.2 °F - 32.0 °F 54% 30.23 in 10.0 mi East 3.5 mph - N/A   Clear
7:50 AM 50.0 °F - 37.4 °F 62% 30.24 in 10.0 mi Calm Calm - N/A   Clear
8:45 AM 59.0 °F - 50.0 °F 72% 30.25 in 10.0 mi SSE 9.2 mph - N/A   Clear
9:50 AM 64.4 °F - 48.2 °F 56% 30.25 in 10.0 mi SSE 17.3 mph 20.7 mph N/A   Scattered Clouds
10:50 AM 68.0 °F - 46.4 °F 46% 30.23 in 10.0 mi South 16.1 mph 23.0 mph N/A   Clear
11:50 AM 68.0 °F - 44.6 °F 43% 30.19 in 10.0 mi SSE 16.1 mph 24.2 mph N/A   Clear
12:50 PM 71.6 °F - 42.8 °F 35% 30.14 in 10.0 mi SSE 17.3 mph - N/A   Partly Cloudy
1:50 PM 73.4 °F - 41.0 °F 31% 30.13 in 10.0 mi SSE 17.3 mph - N/A   Clear
2:50 PM 69.8 °F - 42.8 °F 38% 30.13 in 10.0 mi SSE 17.3 mph 23.0 mph N/A   Partly Cloudy
3:50 PM 71.6 °F - 46.4 °F 41% 30.13 in 10.0 mi SSE 13.8 mph 20.7 mph N/A   Clear
4:50 PM 66.2 °F - 44.6 °F 46% 30.12 in 10.0 mi SSE 10.4 mph - N/A   Clear
5:15 PM 64.4 °F - 46.4 °F 52% 30.13 in 10.0 mi SSE 6.9 mph - N/A   Scattered Clouds
5:35 PM 62.6 °F - 46.4 °F 55% 30.13 in 10.0 mi SE 5.8 mph - N/A   Scattered Clouds
5:50 PM 62.6 °F - 46.4 °F 55% 30.13 in 10.0 mi SE 6.9 mph - N/A   Scattered Clouds
5:55 PM 62.6 °F - 46.4 °F 55% 30.13 in 10.0 mi SSE 4.6 mph - N/A   Clear
6:15 PM 60.8 °F - 46.4 °F 59% 30.13 in 10.0 mi SSE 4.6 mph - N/A   Clear
6:35 PM 59.0 °F - 46.4 °F 63% 30.13 in 10.0 mi South 4.6 mph - N/A   Partly Cloudy
6:55 PM 59.0 °F - 46.4 °F 63% 30.12 in 10.0 mi South 3.5 mph - N/A   Scattered Clouds
7:15 PM 59.0 °F - 48.2 °F 67% 30.13 in 10.0 mi South 4.6 mph - N/A   Partly Cloudy
7:35 PM 57.2 °F - 48.2 °F 72% 30.13 in 10.0 mi Calm Calm - N/A   Partly Cloudy
7:55 PM 55.4 °F - 46.4 °F 72% 30.13 in 10.0 mi SSW 3.5 mph - N/A   Partly Cloudy
8:15 PM 55.4 °F - 46.4 °F 72% 30.13 in 10.0 mi South 5.8 mph - N/A   Clear
8:35 PM 55.4 °F - 46.4 °F 72% 30.13 in 10.0 mi South 8.1 mph - N/A   Clear
8:55 PM 55.4 °F - 48.2 °F 77% 30.13 in 10.0 mi South 6.9 mph - N/A   Clear
9:15 PM 55.4 °F - 48.2 °F 77% 30.13 in 10.0 mi South 6.9 mph - N/A   Clear
9:35 PM 55.4 °F - 48.2 °F 77% 30.13 in 10.0 mi South 9.2 mph - N/A   Clear
9:55 PM 57.2 °F - 48.2 °F 72% 30.13 in 10.0 mi South 10.4 mph - N/A   Clear
10:15 PM 57.2 °F - 50.0 °F 77% 30.13 in 10.0 mi SSE 11.5 mph - N/A   Clear
10:35 PM 57.2 °F - 50.0 °F 77% 30.12 in 10.0 mi South 10.4 mph - N/A   Clear
10:55 PM 57.2 °F - 50.0 °F 77% 30.11 in 10.0 mi South 10.4 mph - N/A   Clear
11:15 PM 55.4 °F - 50.0 °F 82% 30.11 in 10.0 mi SSE 8.1 mph - N/A   Clear
11:35 PM 55.4 °F - 50.0 °F 82% 30.10 in 10.0 mi SSE 6.9 mph - N/A   Clear
11:55 PM 53.6 °F - 50.0 °F 88% 30.10 in 10.0 mi South 8.1 mph - N/A   Clear